CAPE
60 343 792 1260 1285 614 273 445 572 641 698 685 568 642 934 1231 1280 1218 1251 974 637 156 54 2 0 0 17 5 0 58 99 92 123 28 15 0 1 0 3 2 2 0 0
0 17 38 164 693 1120 895 570 420 537 639 738 671 729 929 1212 1324 1386 1024 783 509 15 0 0 0 0 0 0 0 0 16 55 146 87 0 0 1 1 3 1 3 0 0
0 0 0 0 0 40 358 516 512 394 358 458 574 790 960 1031 1096 1295 1062 749 331 0 0 0 0 0 0 0 0 0 0 0 0 50 29 1 2 2 3 3 2 0 0
0 0 0 0 0 0 0 0 70 162 163 84 215 610 754 896 988 933 893 467 82 0 0 0 0 0 0 0 0 0 0 0 0 0 1 0 1 3 3 2 2 2 3
0 0 0 0 0 0 0 0 0 0 44 9 3 63 209 454 562 758 638 298 28 0 0 0 0 0 0 0 0 0 0 0 0 0 0 1 0 4 0 3 4 4 3
0 0 0 0 0 0 0 0 0 0 0 0 3 0 0 8 55 84 108 37 0 0 0 0 0 0 0 0 0 0 0 0 0 0 0 0 0 0 4 3 2 6 4
0 0 0 0 0 0 0 0 0 0 0 0 0 2 1 0 0 2 1 0 0 0 0 0 0 0 0 0 0 0 0 0 0 0 0 0 0 0 1 3 3 1 5
0 0 0 0 0 0 0 0 0 0 0 0 0 0 2 13 0 0 0 0 0 0 0 0 0 0 0 0 0 0 0 0 0 0 0 0 0 0 0 0 2 3 0
0 0 0 0 0 0 0 0 0 0 0 0 0 2 0 0 12 2 0 8 10 0 0 0 0 0 0 0 0 0 0 0 0 0 0 0 0 0 0 1 3 3 4
0 0 0 0 0 0 0 0 0 0 0 0 0 0 0 0 0 0 1 12 12 0 0 0 0 0 0 0 0 0 0 0 0 0 0 0 0 0 0 0 0 0 2
0 0 0 0 0 0 0 0 0 0 0 0 0 0 0 0 0 0 0 0 0 0 2 3 0 0 0 0 0 0 0 0 0 0 0 0 0 0 1 1 0 0 0
0 0 0 0 0 0 0 0 0 0 0 0 0 0 0 0 0 0 0 0 0 0 0 0 0 1 0 0 0 0 0 0 0 0 0 0 0 0 1 3 0 0 0
0 0 0 0 0 0 0 0 0 0 0 0 0 0 0 0 0 0 0 0 0 0 0 0 0 0 0 0 0 0 0 0 0 0 0 0 0 0 0 3 2 2 0
0 0 0 0 0 0 0 0 0 0 0 0 0 0 0 0 0 0 0 0 0 0 0 0 0 0 0 0 0 0 0 0 0 0 0 0 0 0 0 1 3 2 0
4 3 1 0 0 0 0 0 0 0 0 0 0 0 0 0 0 0 0 0 0 0 0 0 0 0 0 0 0 0 0 0 0 0 0 0 0 0 0 3 6 2 0
4 4 5 5 5 6 4 1 0 0 0 0 0 0 1 0 0 0 0 0 0 0 0 0 0 0 0 0 0 0 0 0 0 0 0 0 0 0 0 1 13 3 2
7 4 4 4 5 4 6 7 6 3 0 0 0 0 0 0 0 0 0 0 0 0 0 1 1 0 0 0 0 0 0 0 0 0 0 0 0 0 0 0 20 1 1
4 2 2 3 7 8 5 6 7 7 6 5 1 0 0 0 0 0 0 0 2 0 0 0 0 0 0 0 0 6 2 0 0 0 0 0 0 0 0 0 16 2 2
1 1 2 3 5 5 5 6 8 9 8 8 6 3 0 0 0 0 0 0 1 1 1 0 0 0 0 2 3 13 7 2 0 0 0 0 0 0 0 2 4 0 1
1 0 0 1 2 3 3 3 3 3 6 4 4 5 5 0 0 0 0 0 0 0 0 0 0 0 1 7 13 16 8 4 0 0 0 0 0 0 1 2 0 1 1
1 1 0 0 2 2 2 2 3 3 3 5 3 1 1 6 5 3 0 1 1 1 1 0 0 0 1 2 4 3 1 5 0 1 1 2 3 2 14 2 0 2 4
1 1 1 1 1 1 2 2 2 2 2 3 2 2 1 1 6 4 3 2 0 0 0 0 0 0 0 1 2 1 0 0 4 0 2 0 4 21 12 0 0 1 2
1 1 0 1 2 2 3 3 3 4 3 3 2 3 3 2 3 3 3 4 2 0 0 0 0 0 1 0 0 0 0 0 1 3 3 1 8 21 10 3 1 1 2
0 0 1 1 1 1 3 4 4 4 3 3 3 3 3 3 2 2 1 2 3 6 3 1 1 1 1 1 2 0 0 1 3 33 44 40 21 3 5 0 1 0 1
1 2 2 2 2 4 3 1 2 3 3 2 3 3 2 2 2 2 2 1 2 2 4 4 2 1 1 0 0 0 0 0 16 3 19 50 20 4 6 0 1 1 1
1 1 2 2 4 4 5 4 3 2 2 2 2 2 2 3 2 2 2 2 2 2 3 4 2 1 1 0 0 0 0 0 1 7 14 42 6 1 1 0 1 2 1
CIN
-477 -397 -280 -166 -158 -209 -206 -162 -140 -138 -119 -99 -121 -127 -146 -117 -123 -101 -79 -93 -85 -132 -160 -40 -0 -0 -94 -41 -0 -64 -39 -62 -51 -104 -192 -0 -0 -0 -0 -0 -0 -0 -0
-0 -425 -482 -425 -241 -171 -131 -139 -148 -134 -150 -118 -123 -128 -124 -141 -128 -89 -81 -92 -93 -44 -0 -0 -0 -0 -0 -0 -0 -0 -95 -69 -37 -76 -10 -0 -0 -0 -0 -0 -0 -0 -0
-0 -0 -0 -0 -0 -299 -264 -207 -171 -155 -157 -143 -154 -133 -142 -122 -125 -110 -82 -76 -106 -0 -0 -0 -0 -0 -0 -0 -0 -0 -0 -0 -0 -80 -124 -0 -0 -0 -0 -0 -0 -0 -0
-0 -0 -0 -0 -0 -0 -0 -0 -242 -180 -204 -258 -204 -100 -107 -157 -127 -152 -96 -106 -143 -0 -0 -0 -0 -0 -0 -0 -0 -0 -0 -0 -0 -0 -7 -0 -0 -0 -0 -0 -0 -0 -0
-0 -0 -0 -0 -0 -0 -0 -0 -0 -0 -247 -322 -157 -297 -196 -173 -152 -151 -101 -122 -154 -0 -0 -0 -0 -0 -0 -0 -0 -0 -0 -0 -0 -0 -0 -0 -0 -0 -0 -0 -0 -0 -0
-0 -0 -0 -0 -0 -0 -0 -0 -0 -0 -0 -0 -263 -0 -0 -293 -277 -249 -189 -174 -0 -0 -0 -0 -0 -0 -0 -0 -0 -0 -0 -0 -0 -0 -0 -0 -0 -0 -0 -0 -0 -0 -0
-0 -0 -0 -0 -0 -0 -0 -0 -0 -0 -0 -0 -0 -89 -46 -0 -0 -204 -184 -0 -0 -0 -0 -0 -0 -0 -0 -0 -0 -0 -0 -0 -0 -0 -0 -0 -0 -0 -0 -0 -0 -0 -0
-0 -0 -0 -0 -0 -0 -0 -0 -0 -0 -0 -0 -0 -0 -56 -156 -0 -0 -0 -0 -0 -0 -0 -0 -0 -0 -0 -0 -0 -0 -0 -0 -0 -0 -0 -0 -0 -0 -0 -0 -0 -0 -0
-0 -0 -0 -0 -0 -0 -0 -0 -0 -0 -0 -0 -0 -62 -0 -2 -139 -47 -0 -113 -109 -0 -0 -0 -0 -0 -0 -0 -0 -0 -0 -0 -0 -0 -0 -0 -0 -0 -0 -0 -0 -0 -0
-0 -0 -0 -0 -0 -0 -0 -0 -0 -0 -0 -0 -0 -0 -0 -0 -0 -0 -88 -87 -85 -3 -0 -0 -0 -0 -0 -0 -0 -0 -0 -0 -0 -0 -0 -0 -0 -0 -0 -0 -0 -0 -0
-0 -0 -0 -0 -0 -0 -0 -0 -0 -0 -0 -0 -0 -0 -0 -0 -0 -0 -0 -0 -0 -0 -111 -112 -0 -0 -0 -0 -0 -0 -0 -0 -0 -0 -0 -0 -0 -0 -0 -0 -0 -0 -0
-0 -0 -0 -0 -0 -0 -0 -0 -0 -0 -0 -0 -0 -0 -0 -0 -0 -0 -0 -0 -0 -0 -0 -0 -44 -40 -0 -0 -0 -0 -0 -0 -0 -0 -0 -0 -0 -0 -0 -0 -0 -0 -0
-0 -0 -0 -0 -0 -0 -0 -0 -0 -0 -0 -0 -0 -0 -0 -0 -0 -0 -0 -0 -0 -0 -0 -0 -0 -0 -0 -0 -0 -0 -0 -0 -0 -0 -0 -0 -0 -0 -0 -0 -0 -0 -0
-0 -0 -0 -0 -0 -0 -0 -0 -0 -0 -0 -0 -0 -0 -0 -0 -0 -0 -0 -0 -0 -0 -0 -0 -0 -0 -0 -0 -0 -0 -0 -0 -0 -0 -0 -0 -0 -0 -0 -3 -0 -0 -0
-0 -0 -0 -0 -0 -0 -0 -0 -0 -0 -0 -0 -0 -0 -0 -0 -0 -0 -0 -0 -0 -0 -0 -0 -0 -0 -0 -0 -0 -0 -0 -0 -0 -0 -0 -0 -0 -0 -0 -22 -24 -0 -0
-0 -0 -0 -0 -0 -0 -0 -0 -0 -0 -0 -0 -0 -0 -0 -0 -0 -0 -0 -0 -0 -0 -0 -0 -0 -0 -0 -0 -0 -0 -0 -0 -0 -0 -0 -0 -0 -0 -0 -0 -14 -21 -0
-0 -0 -0 -0 -0 -0 -0 -0 -0 -0 -0 -0 -0 -0 -0 -0 -0 -0 -0 -0 -0 -0 -0 -0 -0 -0 -0 -0 -0 -0 -0 -0 -0 -0 -0 -0 -0 -0 -0 -0 -6 -0 -0
-0 -0 -0 -0 -0 -0 -0 -0 -0 -0 -0 -0 -0 -0 -0 -0 -0 -0 -8 -12 -2 -0 -9 -0 -0 -0 -0 -0 -0 -0 -0 -0 -0 -0 -0 -0 -0 -0 -0 -0 -6 -6 -0
-0 -0 -0 -0 -0 -0 -0 -0 -0 -0 -0 -0 -0 -0 -5 -0 -0 -0 -0 -0 -0 -0 -0 -0 -0 -0 -0 -0 -0 -1 -0 -0 -0 -0 -0 -0 -0 -0 -0 -0 -7 -0 -0
-0 -0 -0 -0 -0 -0 -0 -0 -0 -0 -0 -0 -0 -0 -0 -3 -0 -0 -0 -0 -0 -0 -0 -0 -0 -0 -0 -0 -2 -1 -0 -0 -0 -0 -0 -0 -0 -0 -0 -0 -0 -0 -0
-0 -0 -0 -0 -0 -0 -0 -0 -0 -0 -0 -0 -0 -0 -0 -0 -0 -0 -0 -0 -0 -0 -0 -0 -0 -0 -0 -0 -0 -4 -1 -1 -0 -0 -0 -0 -0 -1 -11 -0 -0 -0 -70
-0 -0 -0 -0 -0 -0 -0 -0 -0 -0 -0 -0 -0 -0 -1 -1 -0 -0 -0 -0 -0 -0 -0 -0 -0 -0 -0 -0 -0 -0 -0 -0 -4 -0 -0 -0 -20 -28 -23 -0 -4 -0 -0
-0 -0 -0 -0 -0 -0 -0 -0 -0 -0 -0 -0 -0 -0 -0 -0 -0 -0 -0 -0 -0 -0 -0 -0 -0 -0 -0 -0 -0 -0 -0 -0 -0 -0 -10 -7 -28 -28 -32 -30 -15 -24 -0
-0 -0 -0 -0 -0 -0 -0 -0 -0 -0 -0 -0 -0 -0 -0 -0 -0 -0 -0 -0 -0 -0 -0 -0 -0 -0 -0 -0 -0 -0 -0 -0 -1 -6 -12 -1 -21 -51 -41 -4 -0 -0 -0
-0 -0 -0 -0 -0 -0 -0 -0 -0 -0 -0 -0 -0 -0 -0 -0 -0 -0 -0 -0 -0 -0 -0 -0 -0 -0 -0 -0 -0 -0 -0 -0 -1 -2 -15 -0 -18 -52 -70 -0 -0 -0 -0
-0 -0 -0 -0 -0 -0 -0 -0 -0 -0 -0 -0 -0 -0 -0 -0 -0 -0 -0 -0 -0 -0 -0 -0 -0 -0 -0 -0 -0 -0 -0 -0 -2 -10 -5 -1 -8 -23 -0 -0 -0 -0 -0
Wind_Speed
22 25 28 30 28 26 23 23 20 20 20 21 21 19 18 17 16 14 13 12 12 12 12 12 14 14 14 15 15 14 13 13 17 18 17 18 17 15 14 12 11 11 12
23 22 26 29 29 29 29 28 27 25 25 27 27 25 24 23 20 18 16 14 13 13 13 13 13 14 15 16 16 16 15 13 16 19 17 16 17 14 13 11 11 12 13
27 24 23 25 27 29 31 32 32 35 31 27 28 29 33 26 24 22 20 18 17 15 14 14 13 13 14 14 14 15 16 16 15 18 18 16 17 13 12 12 12 11 13
32 30 28 26 27 27 27 29 33 36 36 38 30 25 29 27 27 24 22 20 18 16 15 14 12 12 11 11 12 14 15 18 18 18 18 17 16 14 11 10 12 11 12
34 35 36 34 32 30 28 29 30 31 32 30 31 28 28 24 26 26 24 22 21 18 17 14 14 14 12 10 11 13 15 17 18 19 19 18 16 13 9 10 12 11 12
35 35 36 37 39 38 37 31 37 34 29 28 31 30 28 28 25 24 23 21 20 19 18 16 17 16 15 13 13 14 14 16 18 18 20 19 17 14 10 8 8 11 15
38 37 37 37 39 39 39 40 43 42 35 32 33 31 27 24 23 22 21 20 19 19 19 19 19 18 18 18 17 16 16 15 16 15 19 20 17 10 9 7 6 7 14
40 39 39 40 41 41 40 40 40 41 42 34 37 34 30 24 24 24 23 21 22 23 20 18 20 18 14 18 19 20 19 18 17 14 17 21 15 11 6 6 6 9 14
42 41 40 40 41 41 42 42 42 41 41 46 44 42 31 27 26 28 29 29 30 27 24 24 19 17 17 14 15 20 24 22 20 14 17 20 17 10 7 8 8 5 12
47 44 42 41 40 40 39 40 38 38 41 38 39 39 41 36 30 29 30 33 35 32 31 29 28 25 19 16 19 19 24 25 23 21 18 20 18 12 3 4 5 6 13
48 48 45 41 39 36 36 34 34 36 34 33 33 31 31 31 28 27 28 29 30 33 33 32 31 30 29 22 22 22 23 25 24 21 19 17 18 15 4 8 6 7 10
47 48 47 45 42 38 36 35 34 33 35 35 36 36 34 33 31 32 35 35 32 34 35 33 35 35 30 29 28 30 28 25 23 21 19 16 16 16 9 7 6 6 7
43 45 45 45 44 43 42 40 38 38 37 37 37 40 40 39 37 38 38 37 35 34 38 37 38 40 39 37 34 33 31 29 26 21 21 19 14 16 13 10 11 10 12
33 38 40 44 45 43 45 44 43 44 43 42 40 39 38 39 38 37 38 38 40 40 39 40 43 45 44 42 40 35 33 31 27 25 23 21 18 15 17 14 13 10 14
19 19 34 36 38 40 42 42 41 43 44 46 45 44 44 44 42 39 39 40 41 40 38 41 44 43 48 45 42 37 36 32 32 30 27 22 19 16 18 18 16 12 15
27 23 17 29 36 37 38 40 42 42 42 42 44 44 43 43 40 37 36 38 41 41 42 44 44 40 43 42 42 40 39 39 34 31 29 24 21 20 20 21 19 16 14
29 27 25 24 18 22 36 39 43 40 39 45 46 45 45 46 43 42 40 39 41 40 43 43 44 43 42 40 42 40 39 38 36 34 31 28 25 24 22 23 23 19 17
21 27 28 35 42 43 29 33 39 39 40 40 38 39 42 44 45 44 43 42 44 43 44 45 46 45 45 44 45 43 41 38 38 39 36 32 30 28 26 26 26 22 20
11 11 14 14 20 25 26 26 29 33 38 34 35 34 32 34 35 35 37 42 45 47 47 47 46 45 44 43 42 43 43 42 40 40 40 37 34 31 29 27 27 25 20
9 11 16 18 17 18 15 17 23 41 43 28 20 20 31 28 23 21 27 31 37 40 43 50 48 44 43 41 40 42 41 41 41 40 41 37 35 32 28 26 27 26 22
7 7 7 18 16 17 21 22 23 29 33 33 19 14 16 18 16 17 17 19 22 28 36 47 48 47 45 42 41 44 39 37 38 39 39 37 34 32 28 26 26 26 24
8 5 7 19 18 14 14 13 15 19 24 22 15 11 15 21 24 16 16 22 25 21 29 41 45 45 43 40 38 38 40 39 35 35 36 34 33 31 29 29 28 29 26
8 11 11 13 12 13 13 14 13 13 13 12 15 19 20 19 19 24 24 22 23 28 36 41 40 41 43 42 40 39 38 40 37 33 33 32 31 31 30 29 28 28 26
6 9 11 13 11 10 13 13 11 10 11 15 24 24 17 16 19 22 25 26 26 26 16 15 28 37 38 37 34 32 33 35 36 32 31 32 33 30 29 27 28 26 25
11 12 14 16 18 19 22 23 6 5 9 13 18 19 17 19 22 24 19 15 14 13 15 14 17 23 26 27 28 26 26 28 33 36 33 30 30 28 27 27 26 25 25
18 19 21 20 21 22 21 21 22 19 11 17 21 22 23 25 24 19 17 10 9 11 12 16 18 19 22 24 21 21 22 25 32 34 32 30 29 29 28 27 26 27 26
Wind_Direction
300 289 284 279 276 272 269 267 258 254 248 247 252 252 251 249 254 256 266 276 286 299 311 322 331 340 349 355 1 8 14 9 355 357 4 2 3 8 8 15 12 349 351
311 306 295 289 285 279 275 271 268 263 260 257 258 259 256 254 252 251 259 267 273 284 298 308 320 330 336 342 347 355 2 12 357 346 355 360 360 7 10 8 2 356 342
305 304 300 297 293 288 282 280 279 274 267 259 259 259 260 253 250 252 256 260 267 276 287 295 307 319 326 335 345 353 358 2 3 347 344 355 356 5 5 1 359 359 354
298 297 297 296 292 291 294 292 287 275 271 267 264 256 258 253 249 250 249 255 263 270 278 287 297 307 318 329 340 348 354 354 357 348 341 339 347 355 357 360 348 351 348
298 292 289 289 290 290 290 293 295 288 276 277 270 264 261 252 252 252 249 251 261 265 275 281 288 294 303 312 323 330 338 341 348 348 338 333 334 345 355 349 344 343 341
299 295 293 289 284 283 283 286 285 283 284 283 279 268 262 263 259 252 251 252 257 263 270 278 285 287 292 298 305 314 324 329 334 342 338 328 326 330 341 349 350 338 327
296 295 292 291 288 286 283 280 272 276 285 282 284 276 265 260 258 254 250 253 258 264 270 277 282 286 286 291 296 301 308 317 326 338 333 328 321 328 332 330 338 341 325
297 295 292 289 286 286 284 278 276 273 275 276 272 273 269 266 262 260 256 258 261 266 271 275 279 283 283 285 289 293 299 306 313 327 329 325 324 322 320 322 329 337 332
296 294 293 293 288 284 282 281 280 275 273 266 267 267 265 275 271 265 263 263 263 264 268 277 276 280 284 281 291 291 292 297 304 316 324 320 320 316 315 325 322 335 328
291 292 293 291 288 286 285 282 281 279 274 275 272 267 268 269 276 270 267 265 265 268 271 274 272 276 277 279 286 290 290 292 295 305 318 317 317 319 243 289 305 305 319
292 287 287 287 287 286 285 285 281 280 279 278 276 271 267 268 269 268 269 270 270 270 268 269 270 273 274 275 278 282 287 289 291 298 308 317 314 315 277 296 292 297 309
292 285 284 281 282 283 283 283 283 280 277 274 274 272 269 269 270 270 266 268 271 271 270 271 272 271 271 275 277 277 279 281 286 290 295 305 308 307 300 285 288 297 304
293 287 284 281 279 278 277 278 277 276 275 274 275 272 271 270 270 269 270 270 270 271 269 269 269 269 270 272 273 274 274 274 275 279 283 290 299 305 302 293 295 298 307
300 294 289 282 279 277 274 275 275 272 271 271 273 272 272 271 269 271 271 271 271 271 272 270 266 265 267 268 269 269 270 270 270 272 274 279 289 294 294 288 285 283 295
267 281 294 289 284 280 276 275 275 273 270 269 269 270 270 270 270 270 269 270 268 268 269 268 266 264 261 263 265 266 265 266 267 269 268 270 274 280 286 283 278 274 286
249 246 263 292 287 283 281 278 273 272 270 269 269 270 271 271 272 270 268 268 266 265 264 263 262 262 261 262 263 262 262 260 262 264 263 264 265 270 275 278 271 268 271
246 243 239 237 248 283 284 279 276 276 273 270 269 270 269 269 270 269 267 266 266 265 262 261 260 259 259 261 261 261 260 260 259 259 259 259 262 267 266 269 267 263 264
245 243 240 250 273 274 239 237 278 278 277 276 274 272 271 270 269 267 265 265 264 261 260 258 258 258 259 259 258 260 259 258 256 255 255 256 259 262 263 261 261 255 259
262 254 243 246 300 293 292 288 286 283 278 281 279 277 274 273 271 269 264 262 262 259 257 256 256 258 259 260 260 258 256 254 253 253 252 254 256 257 258 256 255 253 250
309 256 241 235 232 230 240 254 286 274 269 285 274 274 279 277 266 255 264 263 262 259 257 253 253 256 256 258 258 255 256 254 252 252 251 251 253 252 252 250 250 246 244
321 294 271 229 225 225 224 223 222 225 228 227 224 258 235 226 245 250 236 236 237 256 257 251 250 252 254 255 254 252 255 255 252 250 249 248 246 247 247 247 246 245 244
356 339 233 231 220 212 209 206 207 211 216 214 213 220 209 207 207 214 218 210 207 218 257 252 250 250 250 251 251 251 250 251 255 248 243 242 243 242 243 244 245 245 241
260 251 233 220 202 202 199 197 196 199 202 204 204 200 196 198 201 205 204 201 201 204 206 245 248 246 245 247 248 249 250 248 248 245 240 238 239 239 240 243 241 238 237
287 275 269 261 230 202 208 202 194 200 205 206 211 209 202 204 205 206 204 205 202 198 198 221 248 245 246 247 250 252 253 248 239 244 234 235 235 236 238 240 237 233 232
302 298 292 288 288 290 297 294 162 161 187 196 203 203 204 202 202 201 195 195 197 206 205 231 239 250 247 249 248 249 247 243 235 234 237 234 232 233 234 235 232 228 230
318 313 309 301 302 303 295 286 283 325 244 221 215 212 213 210 205 200 197 204 214 214 237 247 250 244 248 248 247 239 240 239 229 227 227 230 231 230 231 229 223 226 228